This is the latest recevied weather packets stored in our database for station/object KB1JLI. If no packets are shown the sender has not sent any weather packets the latest 10 day(s).
| Time | Temp. | Humidity | Pressure | Rain* | Wind** | Luminosity | Snow |
|---|---|---|---|---|---|---|---|
| 1777653442 | 14.44° C | 42% | 1009.3 hPa | 0 mm | - | 710 W/m² | - |
| 1777653139 | 14.44° C | 43% | 1009.3 hPa | 0 mm | - | 710 W/m² | - |
| 1777652835 | 14.44° C | 44% | 1009.4 hPa | 0 mm | - | 709 W/m² | - |
| 1777652532 | 14.44° C | 45% | 1009.4 hPa | 0 mm | - | 707 W/m² | - |
| 1777652229 | 14.44° C | 45% | 1009.6 hPa | 0 mm | - | 724 W/m² | - |
| 1777651926 | 14.44° C | 43% | 1009.5 hPa | 0 mm | - | 520 W/m² | - |
| 1777651622 | 13.33° C | 45% | 1009.5 hPa | 0 mm | - | 722 W/m² | - |
| 1777651017 | 13.33° C | 47% | 1009.6 hPa | 0 mm | - | 595 W/m² | - |
| 1777650714 | 13.33° C | 47% | 1009.6 hPa | 0 mm | - | 709 W/m² | - |
| 1777650411 | 13.33° C | 45% | 1009.7 hPa | 0 mm | - | 703 W/m² | - |
| 1777650108 | 13.89° C | 46% | 1009.9 hPa | 0 mm | - | 710 W/m² | - |
| 1777649805 | 12.78° C | 46% | 1009.8 hPa | 0 mm | - | 826 W/m² | - |
| 1777649502 | 13.33° C | 45% | 1009.8 hPa | 0 mm | - | 298 W/m² | - |
| 1777649199 | 13.33° C | 48% | 1009.9 hPa | 0 mm | - | 690 W/m² | - |
| 1777648896 | 13.89° C | 45% | 1009.8 hPa | 0 mm | - | 706 W/m² | - |
| 1777648593 | 13.33° C | 50% | 1010 hPa | 0 mm | - | 843 W/m² | - |
| 1777648289 | 13.33° C | 49% | 1010.1 hPa | 0 mm | - | 705 W/m² | - |
| 1777647986 | 13.33° C | 48% | 1010 hPa | 0 mm | - | 617 W/m² | - |
| 1777647682 | 13.33° C | 49% | 1010 hPa | 0 mm | - | 231 W/m² | - |
| 1777647378 | 12.78° C | 52% | 1010 hPa | 0 mm | - | 727 W/m² | - |
| 1777647076 | 12.22° C | 49% | 1010.2 hPa | 0 mm | - | 644 W/m² | - |
| 1777646169 | 12.22° C | 50% | 1010.4 hPa | 0 mm | - | 625 W/m² | - |
| 1777645866 | 12.22° C | 50% | 1010.2 hPa | 0 mm | - | 609 W/m² | - |
| 1777645563 | 12.22° C | 54% | 1010.1 hPa | 0 mm | - | 597 W/m² | - |
| 1777645259 | 12.22° C | 52% | 1010 hPa | 0 mm | - | 588 W/m² | - |
* Rain latest hour (hover to see other rain measurements)
** Current wind speed in m/s (hover to see current wind gust speed)